GIA284 WAMM-WAJJ

Flight info

Callsign GIA284
Flight time N/A
Altitude 35000
Route HALMO DCT BIK DCT GUKIR DCT VANKA
Aircraft B738/M-SDE2E3FGHIRWXY/LB1

Departure

Time N/A
Airport Sam Ratulangi International Airport (WAMM)

Arrival

Time 2026-04-18 17:48
Airport Dortheys Hiyo Eluay International Airport (WAJJ)
Time Latitude Longitude Altitude Speed Heading
2026-04-18 17:30 -2.35143 140.01576 19172 ft 364 kts 109°
2026-04-18 17:30 -2.36009 140.03872 18758 ft 363 kts 109°
2026-04-18 17:30 -2.36898 140.06229 18317 ft 361 kts 109°
2026-04-18 17:30 -2.37781 140.08573 17846 ft 360 kts 109°
2026-04-18 17:31 -2.38659 140.10904 17397 ft 357 kts 109°
2026-04-18 17:31 -2.39531 140.13216 16948 ft 354 kts 109°
2026-04-18 17:31 -2.40394 140.15506 16532 ft 351 kts 109°
2026-04-18 17:31 -2.41251 140.17780 16119 ft 348 kts 109°
2026-04-18 17:32 -2.42100 140.20031 15708 ft 345 kts 110°
2026-04-18 17:32 -2.42942 140.22267 15298 ft 343 kts 109°
2026-04-18 17:32 -2.43777 140.24483 14955 ft 339 kts 110°
2026-04-18 17:32 -2.44605 140.26681 14554 ft 336 kts 109°
2026-04-18 17:33 -2.45426 140.28858 14183 ft 333 kts 110°
2026-04-18 17:33 -2.47055 140.33184 13329 ft 331 kts 110°
2026-04-18 17:33 -2.47865 140.35333 12900 ft 329 kts 110°
2026-04-18 17:34 -2.48669 140.37470 12491 ft 327 kts 110°
2026-04-18 17:34 -2.49468 140.39589 12089 ft 324 kts 110°
2026-04-18 17:34 -2.50256 140.41682 11691 ft 318 kts 110°
2026-04-18 17:34 -2.51022 140.43715 11291 ft 308 kts 110°
2026-04-18 17:35 -2.51774 140.45712 10923 ft 306 kts 110°
2026-04-18 17:35 -2.52514 140.47678 10557 ft 305 kts 110°
2026-04-18 17:35 -2.53251 140.49635 10385 ft 297 kts 110°
2026-04-18 17:35 -2.53968 140.51538 10237 ft 288 kts 110°
2026-04-18 17:36 -2.54663 140.53382 10107 ft 279 kts 110°
2026-04-18 17:36 -2.55337 140.55172 9947 ft 272 kts 110°
2026-04-18 17:36 -2.56003 140.56943 9648 ft 272 kts 109°
2026-04-18 17:36 -2.56667 140.58708 9337 ft 270 kts 109°
2026-04-18 17:37 -2.57328 140.60465 9044 ft 269 kts 110°
2026-04-18 17:37 -2.57985 140.62212 8735 ft 268 kts 110°
2026-04-18 17:37 -2.58641 140.63955 8408 ft 268 kts 110°
2026-04-18 17:37 -2.59296 140.65696 8096 ft 267 kts 110°
2026-04-18 17:38 -2.59948 140.67429 7802 ft 266 kts 110°
2026-04-18 17:38 -2.60597 140.69153 7520 ft 264 kts 110°
2026-04-18 17:38 -2.61232 140.70840 7366 ft 254 kts 110°
2026-04-18 17:38 -2.61854 140.72492 7120 ft 254 kts 110°
2026-04-18 17:39 -2.62475 140.74144 6886 ft 253 kts 110°
2026-04-18 17:39 -2.63091 140.75780 6722 ft 249 kts 110°
2026-04-18 17:39 -2.63691 140.77376 6600 ft 244 kts 110°
2026-04-18 17:39 -2.64293 140.78974 6431 ft 243 kts 110°
2026-04-18 17:40 -2.64881 140.80537 6304 ft 236 kts 110°
2026-04-18 17:40 -2.65452 140.82052 6184 ft 232 kts 110°
2026-04-18 17:40 -2.66256 140.83478 5914 ft 243 kts 134°
2026-04-18 17:40 -2.67741 140.84327 5692 ft 255 kts 163°
2026-04-18 17:41 -2.69531 140.84326 5521 ft 263 kts 192°
2026-04-18 17:41 -2.71093 140.83419 5256 ft 270 kts 224°
2026-04-18 17:41 -2.71935 140.81768 5021 ft 270 kts 258°
2026-04-18 17:41 -2.71945 140.79912 4743 ft 265 kts 272°
2026-04-18 17:42 -2.71873 140.78097 4472 ft 258 kts 270°
2026-04-18 17:42 -2.71834 140.76368 4344 ft 240 kts 269°
2026-04-18 17:42 -2.71801 140.74748 4220 ft 227 kts 269°
2026-04-18 17:42 -2.71777 140.73213 4103 ft 216 kts 269°
2026-04-18 17:43 -2.71754 140.71723 4029 ft 215 kts 269°
2026-04-18 17:43 -2.71515 140.70256 3982 ft 216 kts 298°
2026-04-18 17:43 -2.70569 140.69131 3971 ft 212 kts 317°
2026-04-18 17:43 -2.69662 140.67944 3733 ft 218 kts 298°
2026-04-18 17:44 -2.68894 140.66652 3464 ft 215 kts 307°
2026-04-18 17:44 -2.67984 140.65474 3192 ft 213 kts 308°
2026-04-18 17:44 -2.67092 140.64306 2934 ft 210 kts 307°
2026-04-18 17:44 -2.66515 140.63534 2746 ft 208 kts 306°
2026-04-18 17:45 -2.65671 140.62394 2469 ft 199 kts 306°
2026-04-18 17:45 -2.64879 140.61325 2226 ft 185 kts 307°
2026-04-18 17:45 -2.64157 140.60351 2016 ft 165 kts 306°
2026-04-18 17:45 -2.63504 140.59469 1797 ft 152 kts 306°
2026-04-18 17:46 -2.62890 140.58638 1644 ft 147 kts 306°
2026-04-18 17:46 -2.62273 140.57808 1453 ft 149 kts 306°
2026-04-18 17:46 -2.61663 140.56986 1265 ft 146 kts 306°
2026-04-18 17:46 -2.61063 140.56175 1084 ft 145 kts 307°
2026-04-18 17:47 -2.60464 140.55367 892 ft 145 kts 307°
2026-04-18 17:47 -2.59865 140.54560 692 ft 144 kts 307°
2026-04-18 17:47 -2.59269 140.53754 501 ft 144 kts 307°
2026-04-18 17:47 -2.58674 140.52958 324 ft 139 kts 307°
2026-04-18 17:48 -2.58161 140.52272 296 ft 96 kts 306°
2026-04-18 17:48 -2.57868 140.51874 303 ft 60 kts 307°
2026-04-18 17:48 -2.57666 140.51602 303 ft 31 kts 307°
2026-04-18 17:48 -2.57546 140.51443 299 ft 28 kts 306°
2026-04-18 17:49 -2.57441 140.51337 298 ft 16 kts 356°
2026-04-18 17:49 -2.57336 140.51370 298 ft 15 kts 20°
2026-04-18 17:49 -2.57262 140.51329 297 ft 13 kts 308°
2026-04-18 17:49 -2.57210 140.51259 297 ft 12 kts 306°
2026-04-18 17:50 -2.57168 140.51212 299 ft 7 kts 337°
2026-04-18 17:50 -2.57124 140.51225 299 ft 7 kts 38°
2026-04-18 17:50 -2.57104 140.51240 299 ft 0 kts 37°